sat.trackr.live / text

‹ back to catalog

2025-197C

NORAD 65490 · 2025-197C

PAYLOAD ACTIVE UNKNOWN

§ Identity

Operator
Country
PRC
Launch date
2025-09-05
Launch site
JSC
Launch vehicle
Mass (kg)
RCS (m²)

External: N2YO · Heavens-Above · Gunter

§ Orbital elements

Epoch: 2026-05-25T01:27:44.413344Z

Period
94.47 min
Inclination
97.4109°
Eccentricity
0.0016162
Mean motion
15.24301809 rev/d
Perigee alt
481.8 km
Apogee alt
504.0 km
Semi-major
6,871.0 km
B*
1.6646e-4
RAAN
332.3286°
Arg perigee
91.9926°
Mean anomaly
268.3162°
Rev number
3,979

§ Raw data

2025-197C1 65490U 25197C   26145.06093071  .00004010  00000+0  16646-3 0  99922 65490  97.4109 332.3286 0016162  91.9926 268.3162 15.24301809 39794

JSON: /api/v1/satellites/65490 · /tle

For live sub-satellite position, see the globe view (requires WebGL).

§ Visibility from observer

Set your observer location to see the next 7 days of passes ≥ 10°. The values pass through the URL so the page stays shareable.

No JS? Fill the form by hand. The geolocation button needs JavaScript.